THY5XV LTFM-EGPH

Flight info

Callsign THY5XV
Flight time N/A
Altitude 36000
Route TUDBU1D/35L TUDBU Q26 ETUBA DCT AMTOV DCT MOPUG DCT VAJDI DCT GYR DCT DITIS DCT VARIK/N0447F380 DCT KATCE DCT BERGI L602 AMGOD DCT MIMVA L602 EMLON M79 TENDO DCT AGPED
Aircraft B739/M-SDE2E3FGHIRWXY/LB1

Departure

Time N/A
Airport İstanbul Airport (LTFM)

Arrival

Time 2026-04-23 19:38
Airport Edinburgh Airport (EGPH)
Time Latitude Longitude Altitude Speed Heading
2026-04-23 16:49 45.34614 22.30257 35981 ft 443 kts 308°
2026-04-23 16:50 45.38302 22.23257 35972 ft 443 kts 308°
2026-04-23 16:50 45.41990 22.16240 35979 ft 443 kts 308°
2026-04-23 16:51 45.45669 22.09222 35971 ft 443 kts 308°
2026-04-23 16:51 45.49352 22.02179 35982 ft 443 kts 308°
2026-04-23 16:52 45.53006 21.95175 35969 ft 443 kts 308°
2026-04-23 16:52 45.56672 21.88130 35976 ft 443 kts 308°
2026-04-23 16:53 45.60339 21.81066 35972 ft 443 kts 308°
2026-04-23 16:53 45.63999 21.73998 35977 ft 443 kts 308°
2026-04-23 16:54 45.67632 21.66963 35976 ft 442 kts 308°
2026-04-23 16:54 45.71284 21.59875 35965 ft 443 kts 308°
2026-04-23 16:55 45.74935 21.52772 35978 ft 443 kts 308°
2026-04-23 16:55 45.78579 21.45663 35962 ft 443 kts 308°
2026-04-23 16:56 45.82220 21.38543 35971 ft 443 kts 308°
2026-04-23 16:56 45.85830 21.31464 35969 ft 443 kts 308°
2026-04-23 16:57 45.89471 21.24307 35963 ft 444 kts 307°
2026-04-23 16:57 45.93104 21.17149 35981 ft 444 kts 307°
2026-04-23 16:58 45.96738 21.09971 35967 ft 444 kts 307°
2026-04-23 16:58 46.00338 21.02839 35978 ft 444 kts 307°
2026-04-23 16:59 46.03970 20.95627 35971 ft 445 kts 307°
2026-04-23 16:59 46.07592 20.88417 35979 ft 445 kts 307°
2026-04-23 17:00 46.11217 20.81181 35975 ft 445 kts 307°
2026-04-23 17:00 46.14833 20.73947 35982 ft 445 kts 307°
2026-04-23 17:01 46.18474 20.66733 35979 ft 445 kts 308°
2026-04-23 17:01 46.22175 20.59653 35984 ft 445 kts 309°
2026-04-23 17:02 46.25906 20.52528 35981 ft 445 kts 309°
2026-04-23 17:02 46.29623 20.45384 35987 ft 445 kts 308°
2026-04-23 17:03 46.33334 20.38212 35979 ft 445 kts 308°
2026-04-23 17:03 46.37008 20.31087 35986 ft 445 kts 308°
2026-04-23 17:04 46.40688 20.23934 35982 ft 446 kts 308°
2026-04-23 17:04 46.44425 20.16657 36008 ft 445 kts 308°
2026-04-23 17:05 46.48117 20.09445 35994 ft 447 kts 308°
2026-04-23 17:05 46.51798 20.02228 35985 ft 448 kts 308°
2026-04-23 17:06 46.55507 19.94940 35987 ft 449 kts 308°
2026-04-23 17:06 46.59214 19.87640 35983 ft 449 kts 308°
2026-04-23 17:07 46.62910 19.80343 35990 ft 449 kts 308°
2026-04-23 17:07 46.66606 19.73026 35985 ft 448 kts 308°
2026-04-23 17:08 46.70264 19.65765 35995 ft 447 kts 308°
2026-04-23 17:08 46.73939 19.58452 35984 ft 447 kts 308°
2026-04-23 17:09 46.77595 19.51157 35993 ft 446 kts 308°
2026-04-23 17:09 46.81258 19.43830 36002 ft 446 kts 308°
2026-04-23 17:10 46.84913 19.36500 36001 ft 446 kts 308°
2026-04-23 17:10 46.88522 19.29241 35999 ft 446 kts 308°
2026-04-23 17:11 46.92167 19.21892 36008 ft 446 kts 308°
2026-04-23 17:11 46.95810 19.14528 36006 ft 446 kts 308°
2026-04-23 17:12 46.99420 19.07211 36015 ft 447 kts 309°
2026-04-23 17:12 47.03051 18.99831 36010 ft 447 kts 308°
2026-04-23 17:13 47.06690 18.92415 36019 ft 448 kts 308°
2026-04-23 17:13 47.10325 18.84985 36011 ft 448 kts 308°
2026-04-23 17:14 47.13961 18.77536 36022 ft 449 kts 308°
2026-04-23 17:14 47.17597 18.70067 36019 ft 449 kts 308°
2026-04-23 17:15 47.21193 18.62658 36031 ft 449 kts 308°
2026-04-23 17:15 47.24834 18.55137 36023 ft 450 kts 309°
2026-04-23 17:16 47.28474 18.47598 36029 ft 450 kts 309°
2026-04-23 17:16 47.32095 18.40076 36029 ft 450 kts 309°
2026-04-23 17:17 47.35719 18.32530 36031 ft 450 kts 309°
2026-04-23 17:17 47.39367 18.25004 36027 ft 450 kts 310°
2026-04-23 17:18 47.44985 18.14000 36026 ft 449 kts 310°
2026-04-23 17:19 47.48742 18.06613 36050 ft 450 kts 310°
2026-04-23 17:19 47.52479 17.99207 36027 ft 450 kts 310°
2026-04-23 17:20 47.56202 17.91796 36045 ft 450 kts 310°
2026-04-23 17:21 47.63666 17.76882 36038 ft 449 kts 310°
2026-04-23 17:21 47.69235 17.65705 36041 ft 449 kts 310°
2026-04-23 17:22 47.74764 17.54559 36035 ft 450 kts 310°
2026-04-23 17:23 47.80325 17.43300 36054 ft 450 kts 310°
2026-04-23 17:24 47.85875 17.32018 36046 ft 450 kts 310°
2026-04-23 17:24 47.91396 17.20748 36047 ft 451 kts 310°
2026-04-23 17:25 47.95079 17.13198 35814 ft 447 kts 312°
2026-04-23 17:25 47.96899 17.09458 35913 ft 445 kts 312°
2026-04-23 17:26 48.00537 17.01980 36028 ft 447 kts 312°
2026-04-23 17:26 48.04197 16.94441 36054 ft 451 kts 312°
2026-04-23 17:27 48.09717 16.83021 36074 ft 457 kts 311°
2026-04-23 17:27 48.13442 16.75281 36074 ft 459 kts 311°
2026-04-23 17:28 48.17165 16.67523 36073 ft 459 kts 311°
2026-04-23 17:28 48.20857 16.59806 36066 ft 458 kts 311°
2026-04-23 17:29 48.24564 16.52039 36069 ft 456 kts 312°
2026-04-23 17:30 48.29449 16.41770 36074 ft 453 kts 312°
2026-04-23 17:30 48.35524 16.28948 36085 ft 450 kts 312°
2026-04-23 17:31 48.39122 16.21327 36111 ft 449 kts 311°
2026-04-23 17:31 48.42733 16.13654 36106 ft 449 kts 312°
2026-04-23 17:32 48.46335 16.05981 36108 ft 449 kts 311°
2026-04-23 17:32 48.49931 15.98298 36106 ft 450 kts 312°
2026-04-23 17:33 48.53542 15.90561 36110 ft 451 kts 311°
2026-04-23 17:33 48.57147 15.82815 36118 ft 452 kts 311°
2026-04-23 17:34 48.60704 15.75149 36122 ft 453 kts 311°
2026-04-23 17:35 48.66177 15.63309 36124 ft 454 kts 311°
2026-04-23 17:35 48.71562 15.51609 36122 ft 454 kts 311°
2026-04-23 17:36 48.75166 15.43750 36130 ft 454 kts 311°
2026-04-23 17:36 48.78761 15.35888 36135 ft 454 kts 311°
2026-04-23 17:37 48.82346 15.28026 36139 ft 454 kts 311°
2026-04-23 17:38 48.87703 15.16234 36141 ft 453 kts 311°
2026-04-23 17:38 48.91355 15.08478 36148 ft 449 kts 315°
2026-04-23 17:39 48.95277 15.01130 36149 ft 447 kts 316°
2026-04-23 17:39 48.99247 14.93836 36151 ft 447 kts 316°
2026-04-23 17:40 49.03164 14.86549 36148 ft 447 kts 316°
2026-04-23 17:40 49.07070 14.79202 36153 ft 447 kts 315°
2026-04-23 17:41 49.10988 14.71791 36156 ft 447 kts 315°
2026-04-23 17:41 49.16503 14.61323 36160 ft 447 kts 315°
2026-04-23 17:42 49.22410 14.50069 36159 ft 448 kts 315°
2026-04-23 17:43 49.26292 14.42646 36161 ft 448 kts 315°
2026-04-23 17:43 49.30165 14.35223 36161 ft 449 kts 315°
2026-04-23 17:44 49.34057 14.27738 36165 ft 449 kts 315°
2026-04-23 17:44 49.39890 14.16485 36159 ft 449 kts 315°
2026-04-23 17:45 49.45691 14.05243 36167 ft 449 kts 315°
2026-04-23 17:46 49.51499 13.93942 36164 ft 449 kts 314°
2026-04-23 17:46 49.55369 13.86384 36170 ft 449 kts 314°
2026-04-23 17:47 49.59230 13.78824 36188 ft 449 kts 314°
2026-04-23 17:48 49.64984 13.67515 36182 ft 449 kts 314°
2026-04-23 17:48 49.68837 13.59914 36183 ft 449 kts 314°
2026-04-23 17:49 49.72684 13.52305 36181 ft 450 kts 314°
2026-04-23 17:49 49.76520 13.44694 36183 ft 450 kts 314°
2026-04-23 17:50 49.80347 13.37081 36178 ft 450 kts 313°
2026-04-23 17:50 49.86107 13.25580 36181 ft 451 kts 313°
2026-04-23 17:51 49.89942 13.17893 36186 ft 451 kts 313°
2026-04-23 17:52 49.95694 13.06324 36192 ft 451 kts 313°
2026-04-23 17:52 50.01407 12.94782 36189 ft 452 kts 313°
2026-04-23 17:53 50.06527 12.84395 36184 ft 452 kts 312°
2026-04-23 17:54 50.10967 12.75354 36182 ft 452 kts 312°
2026-04-23 17:54 50.16680 12.63675 36199 ft 452 kts 312°
2026-04-23 17:55 50.21752 12.53263 36204 ft 452 kts 312°
2026-04-23 17:56 50.25546 12.45446 36201 ft 452 kts 312°
2026-04-23 17:56 50.31246 12.33696 36217 ft 452 kts 312°
2026-04-23 17:57 50.35074 12.25889 36215 ft 452 kts 312°
2026-04-23 17:58 50.40786 12.14210 36211 ft 452 kts 312°
2026-04-23 17:58 50.44605 12.06357 36213 ft 453 kts 311°
2026-04-23 17:59 50.48411 11.98503 36218 ft 453 kts 311°
2026-04-23 17:59 50.52215 11.90630 36225 ft 452 kts 311°
2026-04-23 18:00 50.56013 11.82745 36223 ft 452 kts 311°
2026-04-23 18:00 50.59804 11.74850 36228 ft 452 kts 311°
2026-04-23 18:01 50.63568 11.66991 36232 ft 452 kts 311°
2026-04-23 18:01 50.67344 11.59081 36234 ft 451 kts 310°
2026-04-23 18:02 50.71112 11.51163 36234 ft 451 kts 310°
2026-04-23 18:02 50.74861 11.43263 36235 ft 451 kts 310°
2026-04-23 18:03 50.78635 11.35286 36229 ft 451 kts 310°
2026-04-23 18:03 50.82379 11.27347 36238 ft 452 kts 310°
2026-04-23 18:04 50.86130 11.19368 36239 ft 452 kts 310°
2026-04-23 18:04 50.89881 11.11367 36239 ft 452 kts 310°
2026-04-23 18:05 50.93619 11.03366 36242 ft 452 kts 310°
2026-04-23 18:05 50.97385 10.95284 36242 ft 452 kts 310°
2026-04-23 18:06 51.00734 10.86811 36249 ft 456 kts 300°
2026-04-23 18:06 51.03601 10.77758 36239 ft 457 kts 299°
2026-04-23 18:07 51.06408 10.68782 36244 ft 457 kts 299°
2026-04-23 18:07 51.09264 10.59762 36240 ft 457 kts 300°
2026-04-23 18:08 51.11679 10.52184 36248 ft 458 kts 300°
2026-04-23 18:08 51.15047 10.41607 36256 ft 458 kts 299°
2026-04-23 18:09 51.17947 10.32467 36253 ft 459 kts 299°
2026-04-23 18:09 51.20823 10.23362 36254 ft 459 kts 299°
2026-04-23 18:10 51.23705 10.14202 36257 ft 460 kts 299°
2026-04-23 18:10 51.26567 10.05071 36262 ft 460 kts 299°
2026-04-23 18:11 51.29404 9.95986 36264 ft 460 kts 298°
2026-04-23 18:11 51.32203 9.86989 36266 ft 460 kts 298°
2026-04-23 18:12 51.35074 9.77730 36334 ft 463 kts 298°
2026-04-23 18:12 51.36518 9.73059 36582 ft 462 kts 298°
2026-04-23 18:12 51.37934 9.68467 36904 ft 460 kts 298°
2026-04-23 18:12 51.39345 9.63885 37234 ft 457 kts 298°
2026-04-23 18:13 51.40744 9.59328 37523 ft 455 kts 298°
2026-04-23 18:13 51.42134 9.54800 37766 ft 454 kts 298°
2026-04-23 18:13 51.43531 9.50237 37925 ft 455 kts 298°
2026-04-23 18:13 51.44921 9.45692 38114 ft 455 kts 298°
2026-04-23 18:14 51.46303 9.41160 38270 ft 454 kts 297°
2026-04-23 18:14 51.49086 9.32015 38263 ft 455 kts 297°
2026-04-23 18:15 51.51827 9.22969 38267 ft 454 kts 297°
2026-04-23 18:15 51.54579 9.13852 38274 ft 452 kts 297°
2026-04-23 18:16 51.57318 9.04748 38283 ft 452 kts 297°
2026-04-23 18:16 51.60041 8.95661 38293 ft 452 kts 297°
2026-04-23 18:17 51.64136 8.81931 38298 ft 452 kts 296°
2026-04-23 18:17 51.66854 8.72771 38296 ft 453 kts 296°
2026-04-23 18:18 51.69573 8.63576 38293 ft 455 kts 296°
2026-04-23 18:18 51.72289 8.54355 38298 ft 456 kts 296°
2026-04-23 18:19 51.75006 8.45096 38297 ft 457 kts 296°
2026-04-23 18:19 51.77728 8.35781 38305 ft 457 kts 296°
2026-04-23 18:20 51.80492 8.26287 38304 ft 458 kts 296°
2026-04-23 18:20 51.83214 8.16900 38310 ft 457 kts 295°
2026-04-23 18:21 51.85907 8.07575 38313 ft 457 kts 295°
2026-04-23 18:21 51.88585 7.98268 38314 ft 456 kts 295°
2026-04-23 18:22 51.91249 7.88969 38316 ft 456 kts 295°
2026-04-23 18:22 51.93462 7.81222 38318 ft 455 kts 295°
2026-04-23 18:23 51.97431 7.67254 38320 ft 455 kts 295°
2026-04-23 18:24 52.01383 7.53268 38325 ft 455 kts 294°
2026-04-23 18:25 52.05325 7.39231 38326 ft 455 kts 294°
2026-04-23 18:25 52.07929 7.29912 38332 ft 456 kts 294°
2026-04-23 18:26 52.10541 7.20528 38333 ft 456 kts 294°
2026-04-23 18:26 52.13152 7.11107 38344 ft 456 kts 294°
2026-04-23 18:27 52.15752 7.01689 38342 ft 457 kts 294°
2026-04-23 18:27 52.18354 6.92228 38346 ft 457 kts 293°
2026-04-23 18:28 52.20946 6.82762 38356 ft 457 kts 293°
2026-04-23 18:28 52.23529 6.73289 38350 ft 457 kts 293°
2026-04-23 18:29 52.26109 6.63793 38360 ft 457 kts 293°
2026-04-23 18:29 52.28657 6.54372 38360 ft 457 kts 292°
2026-04-23 18:30 52.31214 6.44881 38358 ft 457 kts 292°
2026-04-23 18:30 52.33764 6.35373 38363 ft 456 kts 292°
2026-04-23 18:31 52.36305 6.25866 38368 ft 456 kts 292°
2026-04-23 18:31 52.38832 6.16366 38375 ft 456 kts 292°
2026-04-23 18:32 52.41345 6.06881 38380 ft 455 kts 292°
2026-04-23 18:32 52.43856 5.97366 38394 ft 455 kts 291°
2026-04-23 18:33 52.46356 5.87850 38398 ft 455 kts 291°
2026-04-23 18:33 52.48849 5.78321 38396 ft 455 kts 291°
2026-04-23 18:34 52.51332 5.68791 38400 ft 455 kts 291°
2026-04-23 18:34 52.53813 5.59230 38402 ft 455 kts 291°
2026-04-23 18:35 52.56267 5.49729 38401 ft 455 kts 291°
2026-04-23 18:35 52.58731 5.40150 38401 ft 455 kts 291°
2026-04-23 18:36 52.61190 5.30550 38402 ft 455 kts 290°
2026-04-23 18:36 52.63636 5.20961 38400 ft 455 kts 290°
2026-04-23 18:37 52.66082 5.11331 38408 ft 455 kts 290°
2026-04-23 18:37 52.68523 5.01679 38405 ft 456 kts 290°
2026-04-23 18:38 52.70927 4.92132 38406 ft 456 kts 290°
2026-04-23 18:38 52.73355 4.82447 38404 ft 456 kts 290°
2026-04-23 18:39 52.75769 4.72776 38409 ft 456 kts 290°
2026-04-23 18:39 52.78178 4.63083 38408 ft 456 kts 290°
2026-04-23 18:40 52.80577 4.53385 38407 ft 456 kts 289°
2026-04-23 18:40 52.82967 4.43686 38411 ft 456 kts 289°
2026-04-23 18:41 52.85332 4.34042 38415 ft 456 kts 289°
2026-04-23 18:41 52.87701 4.24341 38421 ft 455 kts 289°
2026-04-23 18:42 52.90072 4.14588 38428 ft 455 kts 289°
2026-04-23 18:42 52.92429 4.04847 38430 ft 455 kts 289°
2026-04-23 18:43 52.94774 3.95117 38433 ft 455 kts 289°
2026-04-23 18:43 52.97113 3.85365 38441 ft 455 kts 289°
2026-04-23 18:44 52.99429 3.75667 38440 ft 455 kts 288°
2026-04-23 18:44 53.01750 3.65901 38445 ft 454 kts 288°
2026-04-23 18:45 53.04060 3.56137 38443 ft 454 kts 288°
2026-04-23 18:45 53.06365 3.46355 38436 ft 454 kts 288°
2026-04-23 18:46 53.08662 3.36563 38424 ft 455 kts 288°
2026-04-23 18:46 53.10727 3.26662 38417 ft 451 kts 279°
2026-04-23 18:47 53.12071 3.16412 38416 ft 450 kts 278°
2026-04-23 18:47 53.13333 3.06290 38431 ft 450 kts 278°
2026-04-23 18:48 53.14652 2.96065 38444 ft 451 kts 278°
2026-04-23 18:48 53.15987 2.85854 38448 ft 451 kts 278°
2026-04-23 18:49 53.17313 2.75654 38443 ft 451 kts 278°
2026-04-23 18:49 53.18630 2.65444 38446 ft 451 kts 278°
2026-04-23 18:50 53.19718 2.56942 38454 ft 451 kts 278°
2026-04-23 18:50 53.22183 2.45466 38445 ft 459 kts 297°
2026-04-23 18:51 53.25633 2.36398 38447 ft 460 kts 300°
2026-04-23 18:51 53.29121 2.27449 38447 ft 460 kts 299°
2026-04-23 18:52 53.32549 2.18497 38454 ft 459 kts 299°
2026-04-23 18:52 53.35958 2.09465 38455 ft 459 kts 298°
2026-04-23 18:53 53.39355 2.00400 38459 ft 459 kts 298°
2026-04-23 18:53 53.42739 1.91340 38464 ft 459 kts 298°
2026-04-23 18:54 53.46121 1.82253 38465 ft 459 kts 298°
2026-04-23 18:54 53.49499 1.73149 38465 ft 459 kts 298°
2026-04-23 18:55 53.52870 1.64029 38464 ft 459 kts 298°
2026-04-23 18:55 53.56209 1.54964 38467 ft 459 kts 298°
2026-04-23 18:56 53.59000 1.47363 38467 ft 459 kts 298°
2026-04-23 18:56 53.62915 1.36659 38471 ft 459 kts 298°
2026-04-23 18:57 53.66258 1.27480 38472 ft 459 kts 298°
2026-04-23 18:57 53.69592 1.18295 38468 ft 459 kts 298°
2026-04-23 18:58 53.72918 1.09099 38471 ft 459 kts 298°
2026-04-23 18:58 53.76230 0.99903 38469 ft 459 kts 298°
2026-04-23 18:59 53.79551 0.90651 38470 ft 459 kts 298°
2026-04-23 18:59 53.82855 0.81412 38476 ft 459 kts 298°
2026-04-23 19:00 53.86129 0.72222 38472 ft 459 kts 298°
2026-04-23 19:00 53.89417 0.62959 38472 ft 459 kts 298°
2026-04-23 19:01 53.92703 0.53667 38473 ft 459 kts 298°
2026-04-23 19:01 53.95980 0.44362 38478 ft 459 kts 298°
2026-04-23 19:02 53.98698 0.36621 38477 ft 459 kts 298°
2026-04-23 19:02 54.02508 0.25777 38476 ft 460 kts 301°
2026-04-23 19:03 54.06517 0.17275 38482 ft 461 kts 309°
2026-04-23 19:03 54.08646 0.13240 38275 ft 454 kts 310°
2026-04-23 19:03 54.10762 0.09262 37684 ft 452 kts 310°
2026-04-23 19:03 54.12873 0.05271 36850 ft 455 kts 309°
2026-04-23 19:04 54.14997 0.01216 35898 ft 462 kts 308°
2026-04-23 19:04 54.17144 -0.02918 34951 ft 469 kts 308°
2026-04-23 19:04 54.19310 -0.07115 33991 ft 474 kts 307°
2026-04-23 19:04 54.21463 -0.11307 33063 ft 477 kts 307°
2026-04-23 19:05 54.23648 -0.15569 32210 ft 477 kts 307°
2026-04-23 19:05 54.25833 -0.19841 31373 ft 478 kts 307°
2026-04-23 19:05 54.28028 -0.24138 30506 ft 479 kts 307°
2026-04-23 19:05 54.30217 -0.28433 29479 ft 480 kts 308°
2026-04-23 19:06 54.32409 -0.32740 28533 ft 479 kts 308°
2026-04-23 19:06 54.34588 -0.37027 27858 ft 472 kts 308°
2026-04-23 19:06 54.36699 -0.41180 27775 ft 453 kts 308°
2026-04-23 19:06 54.38731 -0.45182 27666 ft 436 kts 308°
2026-04-23 19:07 54.40679 -0.49030 27540 ft 420 kts 308°
2026-04-23 19:07 54.42574 -0.52783 27185 ft 412 kts 309°
2026-04-23 19:07 54.44443 -0.56493 26674 ft 408 kts 309°
2026-04-23 19:07 54.46297 -0.60183 26556 ft 411 kts 309°
2026-04-23 19:08 54.48138 -0.63854 26514 ft 410 kts 309°
2026-04-23 19:08 54.50015 -0.67598 26479 ft 407 kts 309°
2026-04-23 19:08 54.51863 -0.71289 26487 ft 406 kts 309°
2026-04-23 19:08 54.53678 -0.74919 26480 ft 407 kts 309°
2026-04-23 19:09 54.55549 -0.78664 26481 ft 406 kts 310°
2026-04-23 19:09 54.57389 -0.82354 26478 ft 405 kts 310°
2026-04-23 19:09 54.59194 -0.85978 26475 ft 404 kts 310°
2026-04-23 19:09 54.61019 -0.89649 26479 ft 403 kts 310°
2026-04-23 19:10 54.62847 -0.93330 26479 ft 403 kts 310°
2026-04-23 19:10 54.64663 -0.96994 26481 ft 403 kts 310°
2026-04-23 19:10 54.66484 -1.00674 26480 ft 402 kts 310°
2026-04-23 19:10 54.68297 -1.04343 26481 ft 402 kts 311°
2026-04-23 19:11 54.70110 -1.08016 26482 ft 402 kts 311°
2026-04-23 19:11 54.71922 -1.11692 26480 ft 401 kts 311°
2026-04-23 19:11 54.73706 -1.15318 26481 ft 400 kts 311°
2026-04-23 19:11 54.75511 -1.18992 26482 ft 400 kts 311°
2026-04-23 19:12 54.76726 -1.21468 26480 ft 399 kts 311°
2026-04-23 19:12 54.79103 -1.26318 26480 ft 398 kts 311°
2026-04-23 19:12 54.80886 -1.29963 26476 ft 397 kts 311°
2026-04-23 19:12 54.82669 -1.33615 26479 ft 396 kts 311°
2026-04-23 19:13 54.84447 -1.37261 26482 ft 396 kts 311°
2026-04-23 19:13 54.86223 -1.40910 26479 ft 396 kts 311°
2026-04-23 19:13 54.87993 -1.44549 26481 ft 395 kts 311°
2026-04-23 19:13 54.89771 -1.48214 26484 ft 395 kts 311°
2026-04-23 19:14 54.91537 -1.51857 26481 ft 395 kts 311°
2026-04-23 19:14 54.93308 -1.55515 26485 ft 395 kts 311°
2026-04-23 19:14 54.95077 -1.59176 26482 ft 395 kts 311°
2026-04-23 19:14 54.96839 -1.62827 26480 ft 395 kts 311°
2026-04-23 19:15 54.98605 -1.66492 26483 ft 395 kts 311°
2026-04-23 19:15 55.00364 -1.70150 26482 ft 394 kts 311°
2026-04-23 19:15 55.02126 -1.73817 26484 ft 394 kts 311°
2026-04-23 19:15 55.03883 -1.77481 26483 ft 394 kts 311°
2026-04-23 19:16 55.05631 -1.81130 26480 ft 394 kts 311°
2026-04-23 19:16 55.07391 -1.84812 26484 ft 394 kts 311°
2026-04-23 19:16 55.09132 -1.88456 26481 ft 393 kts 311°
2026-04-23 19:17 55.12605 -1.95971 26473 ft 395 kts 305°
2026-04-23 19:17 55.14005 -2.00022 26476 ft 390 kts 302°
2026-04-23 19:17 55.15326 -2.04071 26461 ft 375 kts 301°
2026-04-23 19:17 55.16572 -2.07952 26447 ft 359 kts 301°
2026-04-23 19:18 55.17773 -2.11686 26366 ft 347 kts 301°
2026-04-23 19:18 55.18939 -2.15292 26212 ft 336 kts 301°
2026-04-23 19:18 55.20085 -2.18818 25876 ft 333 kts 301°
2026-04-23 19:18 55.21237 -2.22353 25442 ft 333 kts 301°
2026-04-23 19:19 55.23550 -2.29441 24657 ft 331 kts 301°
2026-04-23 19:19 55.24673 -2.32888 24307 ft 330 kts 301°
2026-04-23 19:20 55.26939 -2.39857 23494 ft 327 kts 301°
2026-04-23 19:20 55.28059 -2.43306 23112 ft 325 kts 301°
2026-04-23 19:20 55.29170 -2.46736 22722 ft 322 kts 301°
2026-04-23 19:20 55.30276 -2.50152 22341 ft 321 kts 301°
2026-04-23 19:21 55.31374 -2.53551 21957 ft 319 kts 300°
2026-04-23 19:21 55.33550 -2.60299 21063 ft 319 kts 300°
2026-04-23 19:21 55.34638 -2.63679 20311 ft 324 kts 300°
2026-04-23 19:22 55.35750 -2.67139 19598 ft 326 kts 299°
2026-04-23 19:22 55.36872 -2.70635 18885 ft 329 kts 299°
2026-04-23 19:22 55.39123 -2.77668 17338 ft 331 kts 298°
2026-04-23 19:23 55.40254 -2.81208 16570 ft 332 kts 298°
2026-04-23 19:23 55.41375 -2.84724 15958 ft 328 kts 298°
2026-04-23 19:23 55.42480 -2.88190 15480 ft 320 kts 298°
2026-04-23 19:24 55.44610 -2.94888 14501 ft 308 kts 298°
2026-04-23 19:24 55.45648 -2.98159 13986 ft 303 kts 298°
2026-04-23 19:24 55.48024 -3.04124 12941 ft 294 kts 309°
2026-04-23 19:25 55.50636 -3.09559 11929 ft 287 kts 309°
2026-04-23 19:25 55.53235 -3.15017 10448 ft 299 kts 308°
2026-04-23 19:26 55.55946 -3.20802 8652 ft 311 kts 308°
2026-04-23 19:26 55.57311 -3.23736 7800 ft 315 kts 308°
2026-04-23 19:27 55.60100 -3.29757 6061 ft 318 kts 308°
2026-04-23 19:27 55.64172 -3.38592 4599 ft 284 kts 308°
2026-04-23 19:28 55.66532 -3.43722 4312 ft 256 kts 308°
2026-04-23 19:28 55.68757 -3.48580 4253 ft 250 kts 308°
2026-04-23 19:29 55.69821 -3.50904 4145 ft 236 kts 308°
2026-04-23 19:29 55.71466 -3.54500 3977 ft 211 kts 308°
2026-04-23 19:30 55.73200 -3.58300 3986 ft 196 kts 307°
2026-04-23 19:30 55.74056 -3.60181 3987 ft 195 kts 307°
2026-04-23 19:30 55.75737 -3.63869 4006 ft 188 kts 307°
2026-04-23 19:31 55.76547 -3.65651 4007 ft 191 kts 307°
2026-04-23 19:31 55.77386 -3.67499 4005 ft 194 kts 307°
2026-04-23 19:31 55.78225 -3.69346 4022 ft 187 kts 307°
2026-04-23 19:31 55.79000 -3.71048 3985 ft 167 kts 307°
2026-04-23 19:32 55.79698 -3.72586 3960 ft 155 kts 307°
2026-04-23 19:32 55.80572 -3.73616 3992 ft 155 kts 343°
2026-04-23 19:32 55.81661 -3.73649 3967 ft 161 kts 25°
2026-04-23 19:32 55.82442 -3.72325 4010 ft 156 kts 53°
2026-04-23 19:33 55.83199 -3.70905 3996 ft 159 kts 48°
2026-04-23 19:33 55.83907 -3.69404 3992 ft 159 kts 52°
2026-04-23 19:33 55.85196 -3.66237 3717 ft 158 kts 59°
2026-04-23 19:34 55.85780 -3.64580 3504 ft 155 kts 60°
2026-04-23 19:34 55.86325 -3.62983 3299 ft 151 kts 60°
2026-04-23 19:34 55.87400 -3.59795 2905 ft 151 kts 60°
2026-04-23 19:35 55.87935 -3.58200 2699 ft 149 kts 60°
2026-04-23 19:35 55.88465 -3.56625 2496 ft 147 kts 61°
2026-04-23 19:35 55.88987 -3.55072 2298 ft 146 kts 61°
2026-04-23 19:35 55.89525 -3.53549 2124 ft 145 kts 59°
2026-04-23 19:36 55.90057 -3.52035 1941 ft 144 kts 59°
2026-04-23 19:36 55.90559 -3.50510 1783 ft 141 kts 62°
2026-04-23 19:36 55.91058 -3.49005 1637 ft 142 kts 61°
2026-04-23 19:36 55.91553 -3.47472 1434 ft 142 kts 61°
2026-04-23 19:37 55.92063 -3.45984 1186 ft 140 kts 59°
2026-04-23 19:37 55.92560 -3.44540 938 ft 139 kts 60°
2026-04-23 19:37 55.93063 -3.42976 768 ft 142 kts 59°
2026-04-23 19:37 55.93569 -3.41509 514 ft 138 kts 59°
2026-04-23 19:38 55.94046 -3.40065 314 ft 136 kts 59°
2026-04-23 19:38 55.94530 -3.38661 145 ft 131 kts 60°
2026-04-23 19:38 55.94946 -3.37409 109 ft 89 kts 59°
2026-04-23 19:38 55.95158 -3.36784 112 ft 29 kts 58°
2026-04-23 19:39 55.95249 -3.36513 109 ft 23 kts 64°
2026-04-23 19:39 55.95241 -3.36405 111 ft 11 kts 139°
2026-04-23 19:39 55.95187 -3.36345 114 ft 8 kts 148°
2026-04-23 19:39 55.95151 -3.36299 115 ft 2 kts 131°
2026-04-23 19:40 55.95137 -3.36286 112 ft 0 kts 175°
2026-04-23 19:40 55.95102 -3.36325 113 ft 10 kts 230°
2026-04-23 19:40 55.95056 -3.36400 115 ft 6 kts 187°
2026-04-23 19:40 55.95028 -3.36389 115 ft 1 kts 157°
2026-04-23 19:41 55.95024 -3.36369 114 ft 4 kts 114°
2026-04-23 19:41 55.95004 -3.36350 113 ft 6 kts 170°
2026-04-23 19:41 55.94983 -3.36379 113 ft 8 kts 241°
2026-04-23 19:41 55.94962 -3.36543 114 ft 16 kts 242°
2026-04-23 19:42 55.94912 -3.36699 115 ft 16 kts 239°
2026-04-23 19:42 55.94863 -3.36780 114 ft 6 kts 189°
2026-04-23 19:42 55.94814 -3.36780 115 ft 9 kts 179°
2026-04-23 19:42 55.94755 -3.36749 114 ft 9 kts 159°
2026-04-23 19:43 55.94682 -3.36736 115 ft 13 kts 179°
2026-04-23 19:43 55.94620 -3.36732 115 ft 4 kts 165°
2026-04-23 19:43 55.94617 -3.36721 115 ft 2 kts 120°
2026-04-23 19:43 55.94612 -3.36664 115 ft 4 kts 90°
2026-04-23 19:44 55.94612 -3.36638 115 ft 2 kts 90°
2026-04-23 19:44 55.94612 -3.36626 115 ft 0 kts 88°